Location: Newark
(34.6283°N, 36.0776°E)
Time: 08:24:38
(UTC+00:00)

S-56A Canister/Altair - Pass Details

Date: 24 October 2019
Orbit: 634 x 2498 km, 38.9° (Epoch: 20 November)

Event Time Altitude Azimuth Distance (km) Brightness Sun altitude
Rises 23:28:17 0° 260° (W) 3,060 - -53.1°
Reaches altitude 10° 23:30:23 10° 263° (W) 2,248 - -52.7°
Maximum altitude 23:35:31 71° 348° (NNW) 959 - -51.8°
Exits shadow 23:41:08 17° 70° (ENE) 2,541 10.5 -50.7°
Drops below altitude 10° 23:42:59 10° 72° (ENE) 3,217 11.2 -50.4°
Sets 23:46:31 0° 75° (ENE) 4,497 12.1 -49.7°
